Regional Weather Roundup
Issued by NWS

Home | Current Version | Previous Version | Text Only | Print | Product List | Glossary Off
Versions: 1 2 3 4 5 6 7 8 9 10 11 12 13 14 15 16 17 18 19 20 21 22 23 24 25 26 27 28 29 30 31 32 33 34 35 36 37 38 39 40 41 42 43 44 45 46 47 48 49 50

000
ASUS43 KMPX 252310
RWRMN
WEATHER ROUNDUP FOR MINNESOTA
NATIONAL WEATHER SERVICE TWIN CITIES/CHANHASSEN MN
600 PM CDT THU AUG 25 2016


NOTE: "FAIR" INDICATES FEW OR NO CLOUDS BELOW 12,000 FEET WITH NO
SIGNIFICANT WEATHER AND/OR OBSTRUCTIONS TO VISIBILITY. N/A MEANS
CURRENT SKY AND/OR WEATHER CONDITIONS ARE NOT AVAILABLE.

MNZ060>063-068>070-260000-
   Twin Cities Metro

CITY           SKY/WX    TMP DP  RH WIND       PRES   REMARKS
TWIN CITIES    PTSUNNY   71  54  54 NW13      30.07R
ST PAUL        MOSUNNY   70  54  56 NW15      30.07R
CRYSTAL        MOSUNNY   71  51  49 W15G23    30.06S
BLAINE         MOSUNNY   72  54  53 W14       30.07R
LAKEVILLE      SUNNY     68  57  68 NW12      30.07F
EDEN PRAIRIE   PTSUNNY   72  55  55 NW9       30.07R
LAKEVILLE      SUNNY     68  57  68 NW12      30.07F
SOUTH ST PAUL  SUNNY     72  54  53 W14       30.07R
LAKE ELMO      PTSUNNY   70  55  60 NW9       30.07S
$$
MNZ001>005-007-008-013>017-022>024-027-028-260000-
   Northwest Minnesota

CITY           SKY/WX    TMP DP  RH WIND       PRES   REMARKS
BEMIDJI        CLOUDY    64  53  67 NW13      30.04S
HALLOCK        MOSUNNY   70  48  46 NW7       30.02S
ROSEAU         SUNNY     68  54  60 NW10      30.02S
WARROAD          N/A     64  55  72 NW3       30.02S VSB 1
THIEF RVR FALL CLOUDY    65  49  56 NW10      30.05S
CROOKSTON      MOSUNNY   70  48  46 NW7       30.04F
FOSSTON        MOSUNNY   66  48  52 NW8       30.05S
DETROIT LAKES  MOSUNNY   64  50  59 NW8       30.08S
MOORHEAD       PTSUNNY   68  48  49 NW10      30.08S
PARK RAPIDS    CLOUDY    65  52  62 NW13      30.06S
MAHNOMEN       MOCLDY    65  48  54 NW9       30.07R
$$
MNZ006-009>011-018-025>026-260000-
   North Central Minnesota

CITY           SKY/WX    TMP DP  RH WIND       PRES   REMARKS
BAUDETTE       CLOUDY    62  52  69 NW12      30.01R
FLAG ISLAND    CLOUDY    64  52  63 N3        29.98S
INTL FALLS     CLOUDY    61  54  77 NW8       29.98R
WASKISH        CLOUDY    61  55  82 NW8       30.02S
BIG FORK       CLOUDY    64  55  72 W5        30.01R
LONGVILLE      CLOUDY    63  54  72 W9        30.05R
GRAND RAPIDS   CLOUDY    62  53  72 W8G23     30.05R
CRANE LAKE     PTSUNNY   63  57  82 W6        29.96R
ORR            LGT RAIN  59  55  88 W7        29.96R
COOK           MOSUNNY   63  57  82 W12G21    29.98R
WALKER         CLOUDY    62  52  70 W9        30.05R
$$
MNZ012-019>021-037-260000-
   Northeast Minnesota

CITY           SKY/WX    TMP DP  RH WIND       PRES   REMARKS
DULUTH         PTSUNNY   65  55  70 W16G22    30.00R
ELY            LGT RAIN  61  55  82 W10G20    29.96R
HIBBING        CLOUDY    62  54  74 W14G22    30.00R
EVELETH        MOSUNNY   65  54  65 W13G21    30.00R
DULUTH HARBOR  CLOUDY    70  57  64 W16       29.99R
TWO HARBORS    MOSUNNY   70  57  64 SW10G18   29.96R
SILVER BAY     MOSUNNY   70  55  60 W6        29.94R
GRAND MARAIS     N/A     70  48  45 W5        29.90R
G MARAIS ARPRT MOSUNNY   64  52  63 SW9       29.94S
$$
MNZ029>031-032-039>041-046>048-054>057-064-260000-
   West Central Minnesota

CITY           SKY/WX    TMP DP  RH WIND       PRES   REMARKS
FERGUS FALLS   CLOUDY    64  54  68 NW9       30.10S
WHEATON        PTSUNNY   66  55  68 W8        30.12S
MORRIS         CLOUDY    66  54  63 W13       30.10S
ALEXANDRIA     CLOUDY    62  55  77 NW7       30.11R
ELBOW LAKE     CLOUDY    63  54  72 NW6       30.10F
WADENA         CLOUDY    63  54  72 W6        30.07S
GLENWOOD       PTSUNNY   64  54  68 W13       30.10S
APPLETON       MOSUNNY   70  52  52 NW14      30.10S
BENSON         MOSUNNY   68  52  56 NW9       30.11S
ORTONVILLE     PTSUNNY   66  52  59 W9        30.11S
MADISON        MOSUNNY   66  52  59 NW10      30.12R
WILLMAR        FAIR      68  54  60 W13G20    30.12S
$$
MNZ033>034-036-042>043-049>051-058-059-260000-
   Central Minnesota

CITY           SKY/WX    TMP DP  RH WIND       PRES   REMARKS
ST CLOUD       PTSUNNY   67  54  63 W12       30.07F
SAUK CENTRE    CLOUDY    64  54  69 W10       30.09S
PAYNESVILLE    MOSUNNY   65  53  64 W10       30.10S
AITKIN         PTSUNNY   66  54  63 W3        30.03S
PINE RIVER     MOSUNNY   64  54  68 W10G16    30.08S
BRAINERD       CLOUDY    65  54  67 NW10      30.06R
STAPLES        CLOUDY    63  55  77 W7        30.07S
LONG PRAIRIE   CLOUDY    63  52  67 SW8       30.09S
LITTLE FALLS   CLOUDY    64  52  63 W9        30.07S
LITCHFIELD     SUNNY     70  54  56 W10G18    30.10S
BUFFALO        SUNNY     69  52  54 W10G16    30.09S
MAPLE LAKE     MOSUNNY   70  56  60 W9        30.09S
HUTCHINSON     SUNNY     69  56  63 W12G17    30.11S
$$
MNZ037-044-045-052-053-260000-
   East Central Minnesota

CITY           SKY/WX    TMP DP  RH WIND       PRES   REMARKS
PRINCETON      CLOUDY    70  55  60 W12       30.07S
MORA           CLOUDY    64  54  68 W8        30.07S
CAMBRIDGE      PTSUNNY   70  54  56 W13G18    30.06S
RUSH CITY      PTSUNNY   67  53  62 W10G17    30.07R
MOOSE LAKE     CLOUDY    64  54  68 W6        30.02R
HINCKLEY       CLOUDY    66  55  68 W10       30.05S
CLOQUET        CLOUDY    64  52  63 W10G17    30.02R
MCGREGOR       CLOUDY    64  55  72 W7        30.04S
$$
MNZ071>073-080-081-089-090-097-098-260000-
   Southwest Minnesota

CITY           SKY/WX    TMP DP  RH WIND       PRES   REMARKS
MONTEVIDEO     SUNNY     70  54  56 N12       30.13R
GRANITE FALLS  PTSUNNY   71  57  60 NW12      30.13S
CANBY          PTSUNNY   71  54  55 N9        30.13S
MARSHALL       PTSUNNY   70  54  56 NW15      30.12R
REDWOOD FALLS  MOSUNNY   70  53  54 NW10      30.10R
OLIVIA         MOSUNNY   70  54  56 NW8       30.11R
PIPESTONE      SUNNY     70  52  52 W12G21    30.14R
WINDOM         SUNNY     72  55  56 W10       30.12S
WORTHINGTON    MOSUNNY   71  57  61 W9        30.14S
JACKSON        SUNNY     72  54  53 NW9       30.13S
TRACY          MOSUNNY   71  57  61 NW9       30.13R
SLAYTON        MOSUNNY   70  54  56 W12       30.14R
$$
MNZ065>067-074>077-082>085-091>093-260000-
   South Central Minnesota

CITY           SKY/WX    TMP DP  RH WIND       PRES   REMARKS
MANKATO        SUNNY     72  55  56 NW13      30.09F
NEW ULM          N/A     70  55  60 NW12      30.09S
ST JAMES       SUNNY     68  52  56 W8        30.11S
FAIRMONT       SUNNY     73  58  59 W10       30.11S
GLENCOE        MOSUNNY   70  58  65 NW9G17    30.09S
FARIBAULT      SUNNY     72  57  60 W9G20     30.09S
OWATONNA       SUNNY     72  55  56 NW12      30.10S
WASECA         MOSUNNY   70  59  68 W8        30.11S
ALBERT LEA     SUNNY     72  57  60 W8        30.10S
$$
MNZ078>079-086>088-094>096-260000-
   Southeast Minnesota

CITY           SKY/WX    TMP DP  RH WIND       PRES   REMARKS
ROCHESTER      SUNNY     73  57  57 W9        30.09S
RED WING       MOSUNNY   73  55  53 W13       30.04F
STANTON        SUNNY     72  57  60 W10       30.07S
DODGE CENTER   SUNNY     72  55  56 NW12      30.09S
WINONA         MOSUNNY   75  52  43 W8G16     30.05S
AUSTIN         SUNNY     72  55  56 NW10      30.09S
PRESTON        MOSUNNY   73  55  54 W10       30.08F
$$
ABBREVIATIONS USED IN REMARKS
   TC - TEMPERATURES IN CELSIUS
  WCI - WIND CHILL INDEX
   HX - HEAT INDEX
  VSB - VISIBILITY
$$




USA.gov is the U.S. government's official web portal to all federal, state and local government web resources and services.